Wind_Speed
20 20 22 22 23 25 26 27 30 32 33 34 35 37 38 40 40 40 41 41 42 42 42 43 45 45 46 46 46 47 47 48 49 49 49 49 50 50 51 52 52 52 52
20 21 22 23 24 25 27 28 30 32 32 34 35 37 39 39 40 40 41 42 43 43 43 44 45 46 47 47 47 48 48 49 50 50 50 51 51 51 51 52 53 53 53
20 21 22 24 24 25 26 27 28 30 32 33 35 37 38 39 40 41 41 42 44 45 45 46 46 47 47 47 48 49 49 49 50 51 51 51 51 51 51 52 53 53 54
22 22 23 23 24 25 26 26 28 29 30 32 34 36 38 39 40 41 41 42 44 45 46 46 46 47 47 47 48 49 50 50 51 52 52 51 52 51 52 53 53 53 54
24 24 24 24 26 27 27 28 28 29 30 32 33 35 37 38 40 40 42 43 44 45 45 46 46 47 47 48 48 49 50 51 52 52 52 52 52 52 53 53 52 53 53
27 27 27 27 28 29 27 28 28 28 29 31 32 34 36 37 39 40 42 43 44 44 45 45 46 46 47 48 49 49 50 51 52 52 53 53 53 53 54 54 53 53 53
27 28 27 28 28 28 28 28 29 29 30 32 33 33 35 36 38 40 41 42 42 43 44 45 46 47 47 47 48 49 49 50 51 51 51 51 52 53 53 54 54 54 53
27 27 27 27 27 27 28 29 30 31 31 31 32 33 34 36 38 39 39 40 41 42 43 44 45 46 46 47 48 48 49 49 50 50 50 50 50 51 51 52 52 52 52
28 27 27 28 29 29 29 30 30 30 31 32 33 34 35 36 37 38 38 40 41 41 43 44 44 44 45 46 47 48 48 48 49 49 49 50 50 50 50 50 51 51 51
28 28 29 29 30 30 31 31 31 32 33 34 35 36 36 37 38 38 39 40 41 42 43 43 44 44 45 46 47 47 48 48 49 49 49 49 49 49 49 50 51 51 52
29 29 30 31 31 31 32 33 34 34 35 35 36 37 38 39 39 40 40 41 41 42 43 44 44 44 45 46 46 46 47 48 48 48 48 48 48 48 49 50 50 50 50
31 31 32 33 33 34 34 35 35 36 36 36 36 37 38 39 39 39 40 41 41 42 43 44 44 45 45 45 46 46 46 46 47 47 46 47 47 48 48 49 49 49 49
34 34 34 34 35 36 36 36 36 37 38 38 38 38 39 39 40 41 41 41 42 43 43 44 44 44 45 45 45 45 45 45 45 45 45 45 46 47 48 48 48 48 47
36 36 36 36 36 36 37 37 38 39 39 40 40 40 39 40 40 41 41 42 42 43 43 44 44 44 44 44 44 44 44 43 43 44 44 44 44 45 45 45 45 44 44
37 38 38 38 38 38 39 39 40 40 41 41 41 41 40 40 41 41 41 42 42 43 43 43 42 42 42 42 42 42 43 42 42 42 43 43 43 43 43 43 42 41 41
39 40 40 40 40 40 40 41 42 42 42 42 42 41 41 41 41 42 42 42 42 42 42 42 41 41 41 41 41 41 41 41 41 41 42 42 42 41 41 40 39 39 39
40 40 41 41 41 41 42 42 42 42 42 42 42 42 42 42 42 42 42 42 42 41 40 40 40 39 39 39 39 39 39 39 40 40 40 40 40 39 39 38 38 37 37
41 41 41 41 41 42 42 42 42 42 41 41 41 42 42 41 41 40 40 40 40 40 39 39 38 38 38 38 38 38 37 38 38 39 38 38 38 37 37 36 36 35 35
41 41 41 40 40 40 41 41 41 40 40 40 40 40 40 40 40 39 39 39 38 37 37 37 36 35 35 35 35 35 35 35 35 35 35 34 34 34 33 33 33 34 33
40 40 39 39 40 40 40 40 40 40 40 40 40 40 39 39 39 38 38 38 37 36 36 35 34 33 33 33 33 33 33 33 33 33 32 32 32 31 31 31 31 31 31
38 38 38 39 39 39 39 39 39 39 39 40 40 39 38 38 37 37 37 36 35 34 34 34 33 33 33 32 32 32 32 32 31 31 31 30 31 30 30 30 30 29 29
37 37 38 38 38 38 38 39 39 40 40 40 39 38 37 36 36 35 35 34 34 34 34 33 33 33 33 32 32 32 31 30 30 30 30 30 30 30 29 29 28 27 27
37 37 37 38 38 39 39 39 39 40 39 38 37 36 35 35 34 34 34 34 33 33 33 32 32 32 31 31 30 30 29 28 28 28 28 28 29 28 28 27 26 26 26
37 38 38 38 39 39 39 39 39 38 37 36 35 34 34 33 33 33 33 33 32 32 32 32 31 30 29 29 29 28 28 28 28 27 27 27 27 26 26 25 25 24 25
38 38 38 38 38 39 38 38 37 36 35 34 33 33 32 32 32 31 31 31 31 31 31 30 29 28 28 28 28 27 27 27 27 26 25 25 24 24 23 23 23 22 23
37 38 38 38 38 38 37 37 36 35 34 33 32 32 31 31 31 31 31 30 30 29 28 27 26 26 26 26 26 25 25 24 24 24 23 23 22 21 21 21 21 21 22
Wind_Direction
280 275 271 268 267 265 261 262 258 254 252 253 252 253 253 255 255 256 257 259 260 262 265 267 268 268 269 269 269 268 269 269 270 270 272 273 273 274 275 275 276 276 276
284 279 276 272 270 269 267 268 263 260 256 253 254 254 255 257 258 260 262 262 263 265 267 269 270 271 271 270 270 270 270 270 270 272 273 273 273 274 275 276 276 277 277
285 280 278 275 274 272 270 270 268 264 261 259 259 258 258 260 261 263 264 265 265 266 268 270 271 271 271 272 271 270 270 271 272 273 275 275 275 276 276 277 277 277 277
286 283 281 279 277 275 273 272 270 268 265 263 263 262 263 264 264 264 266 267 268 269 270 271 272 273 273 273 273 272 271 271 273 275 276 276 276 277 277 277 278 278 277
287 285 284 281 279 279 276 275 273 270 267 265 264 264 264 265 267 267 268 269 270 270 271 271 273 274 274 273 273 273 273 273 274 277 277 277 277 277 278 277 278 278 279
289 288 286 285 282 281 278 278 276 273 271 270 269 268 267 267 270 269 269 270 270 271 272 273 274 274 274 274 274 274 274 275 276 277 278 278 277 277 277 277 277 279 280
290 288 286 284 282 281 280 279 279 279 276 274 271 271 271 271 271 271 271 271 272 273 274 275 275 275 275 275 275 276 277 277 277 278 279 279 279 278 277 278 279 280 281
291 288 286 284 283 282 280 281 281 280 278 277 276 276 276 275 275 274 274 275 275 277 277 277 277 276 276 275 275 276 277 277 278 279 280 280 280 279 279 280 281 281 282
289 287 286 286 284 283 283 282 282 282 282 281 279 279 277 278 278 277 277 277 277 278 278 278 278 277 277 276 276 277 278 278 279 280 280 280 280 281 281 282 282 283 283
287 286 286 286 285 284 283 284 283 283 283 283 281 281 280 280 281 280 279 279 279 279 279 280 279 278 278 278 278 278 279 279 280 280 280 280 280 281 282 283 283 284 285
285 285 286 286 286 286 285 285 284 284 285 285 283 283 282 283 283 282 282 282 281 280 280 280 280 279 279 279 279 280 280 280 281 281 281 280 280 282 282 283 284 284 285
283 284 285 285 286 286 286 286 286 286 286 286 286 286 285 284 283 284 284 283 282 281 281 281 281 280 279 280 280 281 281 282 282 281 281 281 281 282 283 284 284 285 285
281 282 284 285 285 286 287 287 287 288 288 287 288 288 287 285 285 285 285 284 284 283 282 282 282 281 281 281 281 281 281 281 282 282 282 283 283 283 284 283 284 284 284
281 282 284 285 286 287 288 288 288 289 289 289 289 289 289 288 287 286 286 287 286 285 285 284 283 282 282 281 280 280 282 281 281 282 283 283 284 284 284 284 284 283 282
280 281 282 284 285 286 287 288 289 290 290 290 289 290 290 289 288 288 288 288 287 286 286 285 284 283 283 282 281 281 282 282 282 283 283 284 284 284 284 284 283 283 282
279 281 282 283 284 285 286 287 289 291 291 291 291 291 291 291 289 288 289 289 288 288 287 286 284 283 284 283 282 281 281 281 281 282 283 284 284 284 284 284 284 284 284
279 280 281 282 284 285 286 287 289 290 290 290 290 290 291 291 290 289 288 289 288 288 287 285 284 283 284 283 282 282 281 281 281 282 283 284 284 284 284 284 284 285 285
279 280 280 282 283 285 286 288 289 290 290 290 291 290 291 291 290 289 289 288 289 288 287 286 284 283 283 282 281 282 282 282 282 283 284 284 284 284 284 284 284 284 285
280 281 281 282 283 285 287 288 289 290 291 291 291 290 290 290 290 290 290 290 289 288 288 287 285 284 284 283 282 283 283 283 283 284 284 284 284 284 284 284 284 285 286
281 281 281 282 284 285 287 288 289 289 290 290 290 290 289 289 290 290 291 290 289 288 287 287 286 284 284 283 283 284 284 284 284 283 283 283 283 284 284 285 285 286 285
281 281 282 283 285 286 288 289 289 289 289 289 289 289 289 289 290 290 290 290 288 287 287 286 285 285 284 284 284 285 285 285 283 283 283 283 284 284 285 285 285 286 285
281 282 283 284 285 287 289 289 290 290 289 289 289 288 288 288 289 289 289 289 288 287 285 285 286 285 284 284 284 284 284 284 283 283 283 283 284 284 285 284 284 285 286
281 283 284 285 286 288 289 290 290 290 290 289 288 288 287 287 288 288 288 288 288 287 286 285 285 285 283 283 283 283 282 282 282 283 284 283 283 284 284 283 283 284 286
283 284 285 286 287 288 289 290 290 290 290 289 288 287 287 287 287 288 288 288 288 287 286 284 283 282 281 282 282 281 281 282 283 283 283 283 283 283 283 282 283 284 285
284 285 286 286 287 288 289 289 289 289 289 288 288 287 287 286 287 288 288 288 288 287 286 284 281 280 280 281 281 281 281 282 284 284 283 282 283 282 282 282 283 284 286
285 286 286 287 287 288 288 288 288 287 288 289 288 287 286 286 287 287 287 287 288 288 286 283 281 279 280 281 281 281 281 282 284 284 283 282 282 281 280 281 282 285 287
Height
5640 5639 5639 5639 5639 5639 5640 5641 5642 5644 5645 5648 5650 5653 5655 5656 5658 5660 5662 5663 5664 5665 5665 5666 5666 5665 5665 5665 5665 5665 5665 5665 5666 5668 5667 5666 5665 5665 5664 5663 5662 5661 5659
5635 5634 5634 5634 5634 5633 5634 5634 5635 5636 5638 5639 5641 5643 5645 5647 5648 5650 5651 5652 5653 5654 5654 5654 5654 5654 5653 5653 5652 5652 5652 5652 5652 5653 5653 5651 5651 5650 5649 5648 5647 5646 5644
5630 5630 5629 5628 5628 5627 5627 5627 5628 5629 5630 5631 5633 5634 5635 5637 5638 5639 5640 5641 5642 5642 5642 5642 5642 5641 5641 5640 5639 5639 5639 5638 5637 5637 5638 5637 5636 5634 5634 5633 5632 5630 5628
5625 5624 5623 5623 5622 5621 5621 5620 5621 5621 5622 5623 5624 5625 5626 5627 5628 5629 5629 5630 5630 5630 5629 5629 5629 5628 5627 5626 5626 5626 5625 5624 5623 5623 5623 5622 5621 5619 5618 5618 5617 5615 5613
5620 5619 5618 5617 5616 5615 5614 5613 5613 5613 5613 5614 5615 5615 5616 5616 5617 5617 5617 5617 5617 5617 5617 5616 5615 5614 5613 5613 5612 5612 5611 5610 5610 5609 5608 5607 5606 5605 5604 5602 5601 5600 5598
5614 5613 5611 5610 5609 5608 5607 5607 5606 5606 5605 5605 5606 5606 5606 5606 5606 5606 5605 5605 5605 5604 5604 5603 5602 5601 5600 5599 5598 5597 5597 5596 5595 5594 5593 5592 5591 5589 5588 5586 5585 5584 5584
5607 5606 5604 5603 5602 5601 5600 5600 5599 5599 5598 5598 5597 5597 5596 5596 5595 5595 5594 5593 5593 5592 5591 5590 5589 5588 5587 5586 5585 5584 5583 5581 5581 5580 5579 5577 5575 5574 5572 5571 5569 5568 5567
5600 5599 5597 5596 5595 5594 5594 5593 5592 5591 5590 5589 5588 5587 5586 5585 5584 5583 5582 5582 5581 5580 5579 5577 5576 5575 5573 5572 5572 5571 5570 5568 5566 5565 5564 5562 5560 5558 5557 5555 5554 5553 5552
5593 5591 5590 5589 5588 5587 5586 5585 5583 5582 5581 5580 5579 5578 5577 5575 5573 5572 5571 5570 5570 5568 5567 5565 5563 5562 5561 5559 5558 5558 5557 5555 5552 5550 5549 5547 5546 5544 5542 5540 5539 5538 5537
5586 5584 5583 5582 5581 5579 5578 5577 5575 5574 5572 5571 5569 5568 5566 5564 5562 5561 5559 5558 5557 5556 5555 5552 5550 5549 5547 5545 5544 5543 5542 5541 5539 5537 5535 5533 5531 5529 5527 5526 5524 5522 5521
5578 5576 5575 5574 5572 5571 5570 5568 5566 5564 5563 5561 5559 5557 5555 5553 5551 5549 5547 5546 5544 5543 5542 5540 5538 5535 5534 5532 5530 5529 5528 5526 5525 5523 5521 5519 5518 5516 5514 5512 5510 5508 5506
5569 5568 5566 5565 5563 5562 5560 5558 5556 5554 5553 5551 5549 5547 5544 5541 5539 5537 5535 5533 5531 5530 5529 5527 5524 5522 5520 5519 5517 5515 5513 5512 5510 5509 5507 5506 5504 5502 5500 5498 5496 5493 5491
5560 5558 5557 5555 5553 5552 5550 5548 5546 5544 5542 5540 5538 5535 5533 5530 5528 5525 5523 5521 5519 5517 5515 5513 5511 5509 5507 5505 5503 5501 5500 5498 5497 5495 5494 5492 5490 5488 5486 5484 5482 5479 5477
5550 5548 5547 5545 5543 5541 5539 5537 5535 5533 5531 5529 5527 5524 5522 5519 5516 5514 5511 5509 5506 5504 5502 5500 5498 5495 5493 5492 5490 5488 5487 5485 5484 5482 5480 5478 5476 5474 5472 5470 5468 5466 5464
5539 5538 5536 5535 5533 5531 5529 5527 5524 5522 5519 5517 5515 5512 5510 5508 5505 5502 5499 5496 5494 5491 5488 5486 5484 5482 5481 5479 5477 5475 5474 5472 5471 5469 5467 5465 5463 5461 5459 5457 5455 5453 5452
5528 5527 5525 5524 5522 5520 5518 5516 5513 5511 5508 5505 5502 5500 5497 5495 5492 5489 5486 5484 5481 5478 5476 5474 5472 5470 5468 5466 5464 5463 5461 5460 5458 5456 5454 5453 5451 5449 5447 5445 5443 5441 5440
5516 5515 5514 5512 5511 5509 5507 5505 5503 5500 5496 5493 5491 5488 5485 5483 5480 5477 5474 5471 5469 5466 5463 5461 5459 5457 5455 5454 5452 5450 5449 5447 5446 5444 5442 5441 5439 5437 5435 5434 5432 5430 5429
5504 5503 5501 5500 5499 5497 5494 5492 5490 5488 5486 5483 5479 5476 5473 5470 5468 5465 5462 5459 5457 5454 5451 5449 5447 5445 5444 5442 5440 5439 5437 5435 5434 5432 5430 5429 5427 5426 5424 5423 5422 5420 5419
5492 5490 5489 5487 5486 5484 5482 5480 5478 5475 5473 5471 5468 5465 5462 5459 5456 5453 5450 5448 5445 5443 5440 5438 5436 5434 5432 5431 5429 5427 5426 5424 5423 5421 5420 5418 5417 5415 5414 5413 5412 5410 5409
5479 5478 5476 5475 5474 5472 5470 5468 5466 5464 5461 5459 5456 5454 5450 5448 5445 5442 5439 5437 5434 5432 5430 5427 5425 5423 5422 5420 5419 5417 5416 5414 5412 5411 5409 5408 5407 5406 5405 5404 5402 5401 5400
5467 5466 5465 5463 5462 5460 5458 5456 5454 5452 5449 5447 5444 5442 5439 5437 5434 5431 5428 5426 5423 5421 5419 5417 5415 5414 5412 5410 5409 5407 5406 5404 5403 5401 5400 5399 5398 5397 5396 5395 5393 5392 5391
5456 5455 5454 5452 5451 5449 5447 5445 5442 5440 5437 5435 5432 5430 5427 5425 5423 5420 5418 5415 5413 5410 5409 5407 5405 5404 5402 5401 5399 5398 5396 5394 5393 5392 5391 5390 5389 5388 5387 5386 5385 5384 5383
5446 5444 5443 5441 5439 5438 5435 5433 5430 5428 5425 5423 5421 5419 5416 5414 5412 5409 5407 5405 5403 5400 5398 5397 5395 5394 5392 5391 5389 5388 5387 5386 5384 5383 5382 5381 5380 5379 5378 5377 5377 5376 5375
5435 5433 5432 5430 5428 5426 5424 5422 5419 5417 5414 5412 5410 5408 5405 5403 5401 5399 5397 5395 5393 5391 5389 5387 5386 5384 5383 5382 5380 5379 5378 5377 5376 5375 5374 5373 5372 5371 5370 5370 5369 5368 5367
5424 5422 5420 5418 5416 5415 5412 5410 5408 5406 5403 5401 5399 5397 5395 5393 5391 5390 5388 5386 5383 5381 5379 5378 5376 5375 5374 5373 5372 5371 5370 5369 5368 5366 5365 5365 5364 5363 5363 5362 5362 5361 5360
5412 5411 5409 5407 5405 5403 5401 5399 5397 5395 5393 5391 5389 5387 5385 5383 5382 5380 5378 5376 5374 5372 5370 5369 5367 5366 5366 5365 5363 5363 5362 5361 5360 5359 5358 5357 5357 5356 5356 5356 5355 5355 5354